PBO Station Position Time Series. Reference Frame : NAM14
Format Version,1.1.1
4-character ID,WES2
Station name,WESTFORD
Begin Date, 1996-01-01
End Date, 2023-06-07
Release Date, 2023-06-24
Reference position, 42.6133359019 North Latitude, -71.4933279113 East Longitude, 85.01470 meters elevation,
Date, North (mm), East (mm), Vertical (mm), North Std. Deviation (mm), East Std. Deviation (mm),              Vertical Std. Deviation (mm), Quality,
1996-01-01,0.00, 0.00, 0.00, 2.91, 2.29, 10.58, repro,
1996-01-02,0.59, -0.06, 2.60, 2.85, 2.18, 10.12, repro,
1996-01-03,0.83, 1.87, 2.08, 2.88, 2.17, 9.94, repro,
1996-01-04,1.82, 0.72, -5.96, 2.47, 1.96, 9.08, repro,
1996-01-05,0.53, 0.24, -11.40, 3.12, 2.44, 11.02, repro,
1996-01-06,3.05, -1.21, -1.42, 2.77, 2.12, 9.84, repro,
1996-01-07,1.98, 1.62, -0.84, 2.93, 2.29, 10.45, repro,
1996-01-08,3.81, 2.95, -3.11, 3.02, 2.37, 10.77, repro,
1996-01-09,1.08, 2.79, -1.14, 3.04, 2.36, 10.73, repro,
1996-01-10,-1.17, 5.15, -5.59, 2.92, 2.26, 10.24, repro,
1996-01-11,-0.01, 5.04, -4.51, 2.96, 2.32, 10.61, repro,
1996-01-12,-2.73, 4.18, -11.03, 3.09, 2.44, 11.00, repro,
1996-01-13,-3.62, 5.54, -0.54, 2.81, 2.15, 10.00, repro,
1996-01-14,-2.17, 1.25, 5.18, 2.86, 2.23, 10.18, repro,
1996-01-15,1.92, -0.21, -6.83, 2.90, 2.21, 10.06, repro,
1996-01-16,0.80, 1.24, -5.83, 3.12, 2.58, 11.63, repro,
1996-01-17,3.53, 1.91, 7.89, 3.08, 2.48, 11.07, repro,
1996-01-18,-0.70, 1.06, -0.92, 2.71, 2.15, 9.90, repro,
1996-01-19,-3.25, 1.09, -0.65, 2.81, 2.31, 10.33, repro,
1996-01-20,-2.66, -1.56, -6.60, 2.87, 2.34, 10.36, repro,
1996-01-21,-2.20, -1.34, -11.82, 3.08, 2.40, 10.78, repro,
1996-01-22,-0.94, -2.59, -4.80, 2.71, 2.23, 9.98, repro,
1996-01-23,1.16, -1.78, 1.61, 2.71, 2.03, 9.64, repro,
1996-01-24,-1.45, -2.32, 0.52, 2.70, 2.19, 9.85, repro,
1996-01-25,-1.86, -0.06, -3.13, 2.73, 2.22, 10.00, repro,
1996-01-26,-1.38, -0.70, -13.80, 2.92, 2.37, 10.34, repro,
1996-01-27,-3.36, 1.45, -8.79, 2.77, 2.27, 9.95, repro,
1996-01-28,0.48, -0.50, -6.10, 2.73, 2.18, 10.06, repro,
1996-01-29,-0.35, -2.15, -3.67, 2.47, 1.95, 8.68, repro,
1996-01-30,-0.29, 2.26, -5.82, 2.99, 2.52, 11.25, repro,
1996-01-31,-0.63, 0.59, -6.18, 2.70, 2.17, 9.43, repro,
1996-02-01,-0.16, -0.80, -8.66, 2.69, 2.09, 9.60, repro,
1996-02-02,-2.04, -0.12, -6.73, 2.62, 2.01, 9.05, repro,
1996-02-03,-0.34, -0.35, -10.56, 2.78, 2.20, 9.81, repro,
1996-02-04,0.35, -0.37, -13.87, 2.50, 2.02, 9.10, repro,
1996-02-05,0.18, -2.03, -11.36, 2.53, 1.96, 8.73, repro,
1996-02-06,0.60, -1.25, -11.17, 2.67, 2.06, 9.35, repro,
1996-02-07,-0.33, -0.25, -6.32, 2.67, 2.11, 9.56, repro,
1996-02-08,-1.97, 0.13, 6.29, 2.54, 1.95, 8.76, repro,
1996-02-09,-4.44, -2.62, 4.25, 2.85, 2.35, 10.41, repro,
1996-02-10,-0.70, -2.21, 7.42, 2.49, 2.01, 8.98, repro,
1996-02-11,-0.94, 0.55, -3.66, 3.19, 2.41, 11.04, repro,
1996-02-12,-3.74, 1.50, -4.82, 3.89, 2.87, 13.30, repro,
1996-02-13,-1.17, -0.36, 3.65, 3.32, 2.57, 12.13, repro,
1996-02-14,1.44, -0.23, -0.84, 3.41, 2.68, 12.54, repro,
1996-02-15,-0.75, 0.34, -10.06, 3.35, 2.58, 11.76, repro,
1996-02-16,0.14, 0.96, -7.42, 2.99, 2.41, 10.98, repro,
1996-02-17,-1.77, 1.90, -11.19, 3.68, 2.69, 12.61, repro,
1996-02-18,-2.35, 0.46, 3.66, 3.07, 2.38, 10.84, repro,
1996-02-19,-1.63, -0.89, -6.12, 3.72, 2.74, 12.75, repro,
1996-02-20,-0.71, 2.91, -10.52, 2.81, 2.25, 10.08, repro,
1996-02-21,-5.99, -0.60, -1.43, 3.66, 2.70, 12.53, repro,
1996-02-22,-2.88, 0.54, -2.03, 4.18, 3.18, 15.08, repro,
1996-02-23,-2.74, -2.25, 9.54, 2.76, 2.17, 10.06, repro,
1996-02-24,-2.55, -1.71, 2.59, 3.76, 2.75, 13.02, repro,
1996-02-25,-1.09, -0.63, 10.78, 2.80, 2.13, 10.06, repro,
1996-02-26,-2.11, -1.08, 3.52, 2.68, 2.08, 9.31, repro,
1996-02-27,-0.55, 0.56, 1.64, 3.16, 2.30, 10.32, repro,
1996-02-28,1.40, -0.06, -0.15, 3.02, 2.24, 10.24, repro,
1996-02-29,-2.32, 0.36, 3.12, 2.81, 2.12, 9.57, repro,
1996-03-01,-0.48, 0.02, 3.51, 2.82, 2.12, 9.61, repro,
1996-03-02,-1.59, 0.15, 0.56, 2.87, 2.17, 9.65, repro,
1996-03-03,-3.93, 1.64, 0.76, 2.87, 2.16, 9.77, repro,
1996-03-04,-2.34, -1.02, -3.66, 2.69, 2.08, 9.34, repro,
1996-03-05,0.53, -0.75, -3.07, 2.63, 2.05, 9.50, repro,
1996-03-06,-2.88, -0.67, 8.21, 2.50, 1.91, 9.09, repro,
1996-03-07,-4.62, 1.06, 8.42, 2.73, 2.17, 9.69, repro,
1996-03-08,-3.67, 1.12, 20.54, 3.23, 2.30, 10.75, repro,
1996-03-09,-3.45, -2.52, 23.99, 3.14, 2.29, 10.88, repro,
1996-03-10,-0.31, -8.75, 1.07, 2.93, 2.22, 10.02, repro,
1996-03-11,-7.28, -3.96, -13.43, 2.51, 1.94, 8.97, repro,
1996-03-12,-1.57, 0.08, -8.36, 2.46, 1.93, 8.77, repro,
1996-03-13,-0.29, 0.19, 1.69, 2.44, 1.91, 9.14, repro,
1996-03-14,-4.79, 2.73, 1.28, 2.84, 2.20, 9.70, repro,
1996-03-15,-5.99, -0.05, -5.94, 3.09, 2.30, 10.63, repro,
1996-03-16,0.53, 0.86, 1.68, 3.21, 2.39, 11.02, repro,
1996-03-17,-1.63, 0.55, -4.93, 2.97, 2.27, 10.32, repro,
1996-03-18,-1.17, 0.76, -3.82, 3.18, 2.41, 11.26, repro,
1996-03-19,-1.76, 1.22, -14.70, 3.08, 2.30, 10.66, repro,
1996-03-20,-0.35, -0.36, 3.34, 3.41, 2.64, 12.10, repro,
1996-03-21,-3.90, 0.81, -0.66, 3.60, 2.78, 12.57, repro,
1996-03-22,-2.80, 3.73, -12.19, 3.33, 2.73, 12.34, repro,
1996-03-23,-4.25, 0.48, -7.98, 3.13, 2.69, 11.63, repro,
1996-03-24,-3.73, 2.58, -16.76, 2.97, 2.23, 9.88, repro,
1996-03-25,0.53, 0.13, 8.46, 3.12, 2.41, 11.04, repro,
1996-03-26,-1.87, 0.55, -2.53, 3.04, 2.33, 11.05, repro,
1996-03-27,-0.58, 0.18, -10.28, 3.28, 2.32, 10.87, repro,
1996-03-28,-0.99, -0.48, -11.24, 2.56, 2.02, 9.58, repro,
1996-03-29,-2.05, 4.95, -5.17, 4.24, 3.43, 14.96, repro,
1996-03-30,-3.04, 4.55, -5.58, 2.44, 1.89, 8.60, repro,
1996-03-31,-1.42, 4.50, -8.13, 2.38, 1.85, 8.37, repro,
1996-04-01,-2.54, 4.71, -3.04, 2.42, 1.88, 8.82, repro,
1996-04-02,-2.25, 5.35, -0.05, 2.33, 1.85, 8.33, repro,
1996-04-03,-2.37, 3.60, 0.59, 2.35, 1.82, 8.31, repro,
1996-04-04,-3.69, 2.68, 0.94, 2.39, 1.87, 8.45, repro,
1996-04-05,-1.84, 4.59, -5.40, 2.59, 2.00, 9.02, repro,
1996-04-06,-2.87, 4.05, -3.77, 2.44, 1.92, 8.70, repro,
1996-04-07,-3.32, 3.47, -3.72, 2.40, 1.88, 8.55, repro,
1996-04-08,-29.75, 4.60, 2.91, 2.54, 1.96, 8.21, repro,
1996-04-09,-3.08, 4.05, 0.09, 2.40, 1.86, 8.48, repro,
1996-04-10,-12.92, 13.82, -4.95, 2.75, 2.11, 9.06, repro,
1996-04-11,-4.02, 5.92, 11.39, 2.39, 1.87, 8.45, repro,
1996-04-12,-3.34, 5.13, 3.95, 2.54, 1.99, 8.86, repro,
1996-04-13,-3.21, 4.24, 2.15, 2.61, 1.99, 9.22, repro,
1996-04-14,-3.35, 4.64, -3.76, 2.46, 1.89, 8.47, repro,
1996-04-15,-1.55, 4.91, -8.23, 2.46, 1.91, 8.86, repro,
1996-04-16,-1.63, 5.78, -2.12, 2.42, 1.84, 8.56, repro,
1996-04-17,-1.10, 5.04, 4.54, 2.38, 1.87, 8.44, repro,
1996-04-18,-1.35, 4.74, 2.17, 2.49, 1.93, 8.71, repro,
1996-04-19,-0.50, 5.50, 5.54, 2.35, 1.82, 8.23, repro,
1996-04-20,-1.13, 5.26, 6.78, 2.56, 1.96, 8.75, repro,
1996-04-21,-1.04, 4.64, 0.78, 2.53, 1.94, 8.83, repro,
1996-04-22,-1.93, 2.40, 0.30, 2.51, 1.96, 8.83, repro,
1996-04-23,0.71, 3.19, 0.75, 2.43, 1.89, 8.74, repro,
1996-04-24,0.26, 3.37, -11.59, 3.11, 2.31, 10.68, repro,
1996-04-25,15.99, -3.73, -73.59, 13.50, 10.41, 56.27, repro,
1996-04-26,-1.73, -1.77, 14.84, 3.09, 2.52, 11.32, repro,
1996-04-27,-2.09, 0.21, 10.51, 2.39, 1.89, 8.32, repro,
1996-04-28,-0.70, -3.95, 8.55, 2.43, 1.98, 8.70, repro,
1996-04-29,-1.28, -4.77, 4.30, 2.46, 2.08, 9.16, repro,
1996-04-30,-2.02, -1.41, 0.92, 2.41, 1.96, 8.52, repro,
1996-05-01,0.89, -4.11, -1.64, 2.56, 2.04, 8.94, repro,
1996-05-02,-1.11, -3.34, 5.26, 2.49, 1.97, 8.86, repro,
1996-05-03,-1.13, -2.59, 0.85, 2.47, 1.96, 8.66, repro,
1996-05-04,-1.57, -3.80, -2.02, 2.41, 1.91, 8.52, repro,
1996-05-05,-1.37, -3.27, -1.20, 2.41, 1.90, 8.52, repro,
1996-05-06,-1.46, -2.97, -4.60, 2.42, 1.90, 8.45, repro,
1996-05-07,-0.88, -4.83, -8.31, 2.69, 2.15, 9.45, repro,
1996-05-08,-0.93, -4.69, -3.49, 2.62, 1.99, 9.07, repro,
1996-05-09,-0.88, -2.69, 2.15, 2.52, 2.03, 8.80, repro,
1996-05-10,-1.18, -5.06, -3.65, 2.55, 1.99, 8.85, repro,
1996-05-11,0.36, -4.05, 8.74, 2.55, 2.02, 9.41, repro,
1996-05-12,-2.09, -4.58, 7.77, 2.46, 1.91, 8.60, repro,
1996-05-13,-1.72, -3.97, 2.14, 2.52, 1.98, 8.82, repro,
1996-05-14,-0.22, -6.03, -2.03, 2.51, 2.01, 8.95, repro,
1996-05-15,-0.32, -3.80, -1.44, 2.46, 1.95, 8.70, repro,
1996-05-16,-0.72, -3.57, 2.42, 2.47, 1.89, 8.62, repro,
1996-05-17,-2.86, -1.52, 3.72, 2.70, 2.09, 9.15, repro,
1996-05-18,-2.40, -2.21, 4.37, 2.48, 1.93, 8.71, repro,
1996-05-19,-1.82, -3.09, -1.61, 2.38, 1.86, 8.33, repro,
1996-05-20,-2.05, 0.59, 8.94, 2.42, 1.89, 8.50, repro,
1996-05-21,0.66, -5.20, 7.21, 2.57, 2.01, 8.98, repro,
1996-05-22,0.69, -2.38, 1.13, 2.55, 2.03, 9.20, repro,
1996-05-23,-1.01, -3.18, 2.43, 2.57, 1.99, 9.32, repro,
1996-05-24,-0.11, -4.64, 2.05, 2.45, 2.00, 8.80, repro,
1996-05-25,-1.82, -7.12, -0.40, 2.45, 1.97, 8.70, repro,
1996-05-26,-1.82, -3.25, 6.39, 2.48, 1.98, 8.97, repro,
1996-05-27,-1.89, -2.67, 6.08, 2.46, 2.04, 9.10, repro,
1996-05-28,-2.14, -2.28, 6.16, 2.37, 1.86, 8.39, repro,
1996-05-29,-3.73, -4.31, 4.07, 2.57, 2.05, 9.08, repro,
1996-05-30,-2.29, -4.24, -1.08, 2.43, 1.91, 8.56, repro,
1996-05-31,-1.70, -4.59, -0.20, 2.37, 1.89, 8.57, repro,
1996-06-01,-1.30, -3.91, 1.06, 2.55, 2.04, 9.46, repro,
1996-06-02,-0.57, -3.82, -0.16, 2.40, 1.92, 8.72, repro,
1996-06-03,-3.20, -5.89, 4.31, 2.62, 2.05, 9.30, repro,
1996-06-04,-3.67, -0.90, 12.79, 2.45, 1.92, 8.92, repro,
1996-06-05,-1.35, -0.64, -1.11, 2.46, 1.93, 8.92, repro,
1996-06-06,0.05, -0.65, -3.29, 2.37, 1.89, 8.62, repro,
1996-06-07,-1.06, 0.81, -1.85, 2.60, 2.08, 9.74, repro,
1996-06-08,-2.08, -0.65, 9.06, 2.61, 2.04, 9.53, repro,
1996-06-09,-7.90, -2.92, 21.37, 4.33, 3.33, 14.53, repro,
1996-06-11,37.61, -80.06, -77.07, 21.00, 10.36, 62.31, repro,
1996-06-12,-3.59, -1.78, 5.20, 3.56, 2.80, 12.47, repro,
1996-06-13,-1.76, -0.20, 2.82, 2.88, 2.30, 10.67, repro,
1996-06-14,-1.72, -0.76, -3.88, 2.54, 1.99, 9.17, repro,
1996-06-15,-2.25, -0.87, 5.19, 2.42, 1.90, 8.79, repro,
1996-06-16,-0.84, -1.51, 6.49, 2.47, 1.91, 8.83, repro,
1996-06-17,-4.60, -1.12, -0.95, 2.49, 1.94, 8.88, repro,
1996-06-18,-1.15, 0.11, 0.60, 2.68, 2.10, 9.95, repro,
1996-06-19,-2.56, 1.55, 6.76, 2.87, 2.19, 10.10, repro,
1996-06-20,-3.05, -1.44, 8.79, 3.24, 2.43, 11.62, repro,
1996-06-21,-2.60, -0.03, 5.18, 2.84, 2.23, 10.43, repro,
1996-06-22,0.88, 5.57, 4.83, 5.74, 4.01, 21.35, repro,
1996-06-23,-2.32, -0.87, 17.31, 3.36, 2.53, 12.17, repro,
1996-06-24,-3.83, -0.29, 4.21, 3.36, 2.50, 11.62, repro,
1996-06-25,-0.83, 0.58, 8.67, 3.22, 2.39, 11.29, repro,
1996-06-26,-2.26, -2.07, 10.37, 3.12, 2.27, 10.68, repro,
1996-06-27,-3.09, -1.07, 19.97, 3.14, 2.26, 10.66, repro,
1996-06-28,-1.25, -1.19, -0.31, 3.14, 2.37, 11.54, repro,
1996-06-29,-0.82, -3.58, -6.11, 3.71, 2.84, 13.29, repro,
1996-06-30,-1.97, -1.74, 17.65, 2.86, 2.40, 11.10, repro,
1996-07-01,-3.76, -5.24, 4.83, 2.61, 1.98, 9.30, repro,
1996-07-02,-0.70, -2.23, 3.47, 2.60, 2.00, 9.15, repro,
1996-07-03,-3.14, -0.74, 7.35, 2.62, 2.11, 9.68, repro,
1996-07-04,-4.47, -0.71, 11.83, 2.72, 2.04, 9.50, repro,
1996-07-05,-3.00, -2.46, 3.74, 2.50, 1.92, 8.87, repro,
1996-07-06,-2.31, -0.71, 1.90, 2.53, 1.92, 8.77, repro,
1996-07-07,-2.80, -1.35, 8.10, 2.40, 1.87, 8.55, repro,
1996-07-08,-4.23, 0.64, 10.36, 2.62, 2.01, 9.49, repro,
1996-07-09,-5.01, -4.14, 27.98, 2.57, 1.93, 9.23, repro,
1996-07-10,-2.47, -1.87, 9.97, 2.50, 2.01, 9.17, repro,
1996-07-11,-1.58, -2.07, 9.54, 2.38, 1.91, 8.69, repro,
1996-07-12,-1.66, -2.81, 12.68, 2.43, 1.91, 8.81, repro,
1996-07-13,-4.85, 0.75, 2.45, 2.48, 1.96, 8.85, repro,
1996-07-14,2.20, -1.11, -2.76, 4.54, 3.26, 15.47, repro,
1996-07-15,-3.34, 0.42, 9.89, 2.54, 2.00, 9.21, repro,
1996-07-16,-4.71, -1.25, 5.52, 2.53, 1.99, 9.12, repro,
1996-07-17,-3.41, 1.66, 11.40, 2.53, 1.98, 8.97, repro,
1996-07-18,-1.92, 0.02, 13.37, 2.34, 1.87, 8.49, repro,
1996-07-19,-2.97, 0.07, 19.86, 2.46, 1.93, 8.81, repro,
1996-07-20,-2.60, -0.28, 22.19, 2.41, 1.92, 8.71, repro,
1996-07-21,-1.92, -0.33, 9.22, 2.41, 1.90, 8.65, repro,
1996-07-22,-2.95, -1.10, 8.22, 2.45, 1.92, 8.86, repro,
1996-07-23,-3.12, 0.25, 12.01, 2.47, 1.95, 9.21, repro,
1996-07-24,-4.14, -0.12, 1.14, 2.44, 1.96, 9.10, repro,
1996-07-25,-3.54, -0.25, 7.55, 2.36, 1.88, 8.52, repro,
1996-07-26,-2.65, -1.10, 12.76, 2.54, 1.96, 9.02, repro,
1996-07-27,-2.01, 0.84, 10.74, 2.46, 1.92, 8.73, repro,
1996-07-28,-0.84, -0.80, 8.00, 2.40, 1.91, 8.63, repro,
1996-07-29,-2.11, -0.61, 3.24, 2.62, 2.07, 9.82, repro,
1996-07-30,-0.83, 0.61, 1.88, 2.49, 1.96, 9.01, repro,
1996-07-31,-2.86, 0.43, 6.73, 2.45, 1.93, 8.76, repro,
1996-08-01,-3.49, -0.67, 9.69, 2.40, 1.90, 8.55, repro,
1996-08-02,-1.64, 0.77, 5.45, 2.62, 2.09, 9.59, repro,
1996-08-03,-2.20, 0.14, 12.64, 2.69, 2.09, 9.75, repro,
1996-08-04,-2.72, 0.40, 24.47, 2.59, 2.02, 9.07, repro,
1996-08-05,-4.48, -0.24, 13.39, 2.55, 1.96, 9.08, repro,
1996-08-06,-1.74, -0.37, 6.25, 2.64, 2.02, 9.43, repro,
1996-08-07,-2.19, -3.06, 11.46, 2.63, 2.02, 9.18, repro,
1996-08-08,-2.78, -3.15, 9.69, 2.57, 2.07, 9.28, repro,
1996-08-09,-3.30, -2.02, 6.91, 2.66, 2.10, 9.57, repro,
1996-08-10,-0.60, -0.15, 17.42, 2.50, 2.00, 9.00, repro,
1996-08-11,-4.00, -0.17, 15.41, 2.64, 1.99, 9.23, repro,
1996-08-12,-4.24, -0.29, 5.76, 2.42, 1.91, 8.77, repro,
1996-08-13,-3.90, -1.21, 12.06, 2.41, 1.89, 8.68, repro,
1996-08-14,-2.64, 1.31, 3.38, 2.50, 1.96, 9.10, repro,
1996-08-15,-2.36, -1.78, 4.86, 2.44, 1.92, 8.89, repro,
1996-08-16,-0.68, -1.14, 10.68, 2.64, 2.00, 9.63, repro,
1996-08-17,-4.52, -0.37, 5.66, 2.37, 1.86, 8.57, repro,
1996-08-18,-1.87, -2.66, 2.57, 2.70, 2.05, 9.96, repro,
1996-08-19,-2.61, 0.76, 9.06, 2.77, 2.20, 10.05, repro,
1996-08-20,-1.82, 0.09, 14.61, 2.65, 2.14, 9.57, repro,
1996-08-21,-3.01, -0.31, 19.39, 2.83, 2.19, 10.37, repro,
1996-08-22,-3.24, -1.18, 9.77, 2.70, 2.10, 9.54, repro,
1996-08-23,-3.68, 0.65, 20.13, 2.69, 2.01, 9.60, repro,
1996-08-24,-5.25, 0.12, 22.56, 2.83, 2.14, 10.07, repro,
1996-08-25,-2.91, -0.71, 12.30, 2.65, 2.07, 9.43, repro,
1996-08-26,-5.51, -0.07, 20.77, 2.83, 2.22, 9.87, repro,
1996-08-27,-3.44, -2.32, 4.96, 2.88, 2.23, 9.93, repro,
1996-08-28,-4.10, -2.51, 4.36, 3.02, 2.29, 10.50, repro,
1996-08-29,-4.14, -1.96, 15.63, 2.73, 2.14, 9.99, repro,
1996-08-30,-1.06, -1.68, 14.36, 2.81, 2.16, 9.72, repro,
1996-08-31,-2.53, -2.03, 10.70, 2.57, 2.00, 8.93, repro,
1996-09-01,-5.12, -1.52, 12.48, 2.74, 2.11, 9.56, repro,
1996-09-02,-3.15, -0.81, 8.72, 3.03, 2.37, 10.85, repro,
1996-09-03,-4.51, -1.19, 16.59, 2.61, 2.05, 9.24, repro,
1996-09-04,-2.58, -2.53, 13.99, 2.78, 2.20, 10.15, repro,
1996-09-05,-6.72, -1.54, 20.71, 2.82, 2.16, 9.97, repro,
1996-09-06,-5.58, -3.77, 22.80, 3.06, 2.35, 10.64, repro,
1996-09-07,-3.32, 1.96, 0.79, 2.66, 2.08, 9.38, repro,
1996-09-08,-4.12, 0.67, 16.75, 2.57, 2.04, 9.51, repro,
1996-09-09,-5.29, 0.26, 6.46, 3.17, 2.59, 11.64, repro,
1996-09-10,-4.40, -0.05, 17.50, 3.04, 2.44, 10.81, repro,
1996-09-11,-2.88, -0.22, 4.36, 3.05, 2.35, 11.04, repro,
1996-09-12,-4.71, 0.31, 10.94, 3.07, 2.45, 11.31, repro,
1996-09-13,-3.11, 1.04, 15.88, 3.10, 2.39, 10.98, repro,
1996-09-14,-4.61, -0.17, 19.88, 2.68, 2.14, 9.78, repro,
1996-09-15,-5.62, -0.60, 11.26, 2.91, 2.35, 10.42, repro,
1996-09-16,-5.93, 1.26, 14.83, 2.71, 2.17, 9.75, repro,
1996-09-17,-3.63, 0.03, 11.44, 2.78, 2.26, 9.92, repro,
1996-09-18,-4.86, -2.90, 11.50, 2.91, 2.26, 10.42, repro,
1996-09-19,-3.55, 0.24, 2.11, 3.08, 2.53, 11.02, repro,
1996-09-20,-4.41, -0.47, 7.83, 3.03, 2.40, 10.81, repro,
1996-09-21,-1.74, 3.06, 16.59, 2.99, 2.30, 10.20, repro,
1996-09-22,-2.31, 0.23, 29.43, 2.81, 2.30, 10.16, repro,
1996-09-23,-3.33, -0.10, -0.21, 2.88, 2.25, 10.53, repro,
1996-09-24,-4.65, -0.61, 0.11, 2.41, 2.04, 9.32, repro,
1996-09-25,-3.77, -0.34, 4.20, 2.41, 2.06, 9.01, repro,
1996-09-26,-3.44, -1.33, 1.76, 2.40, 1.98, 8.73, repro,
1996-09-27,-5.08, 0.53, 2.09, 2.58, 2.13, 9.02, repro,
1996-09-28,-3.54, 0.35, 8.93, 2.38, 1.98, 8.73, repro,
1996-09-29,-3.01, -1.24, 4.25, 2.39, 1.98, 8.97, repro,
1996-09-30,-4.92, -1.09, 1.71, 2.41, 2.02, 8.81, repro,
1996-10-01,-2.66, -1.18, 5.44, 2.45, 2.00, 8.82, repro,
1996-10-02,-4.93, -0.65, 1.04, 2.35, 1.91, 8.41, repro,
1996-10-03,-2.78, -2.24, 4.67, 2.43, 1.95, 8.75, repro,
1996-10-04,-3.11, 0.45, -4.97, 2.55, 2.04, 9.05, repro,
1996-10-05,-4.52, 1.14, -5.24, 2.45, 2.03, 8.67, repro,
1996-10-06,-5.48, -0.76, -0.13, 2.39, 1.95, 8.48, repro,
1996-10-07,-3.63, -1.41, 5.40, 2.52, 1.98, 8.99, repro,
1996-10-08,-6.02, -0.02, 5.06, 2.65, 2.18, 10.08, repro,
1996-10-09,-3.30, -1.39, 6.44, 2.58, 2.16, 9.37, repro,
1996-10-10,-5.67, 0.31, 7.38, 2.32, 1.89, 8.35, repro,
1996-10-11,-2.96, -1.09, 5.05, 2.28, 1.91, 8.34, repro,
1996-10-12,-2.80, -2.19, -2.54, 2.29, 1.90, 8.36, repro,
1996-10-13,-3.53, -2.65, -0.21, 2.54, 2.02, 9.10, repro,
1996-10-14,-0.36, -1.01, 12.93, 2.60, 2.12, 9.31, repro,
1996-10-15,-3.07, -0.25, 5.26, 2.58, 2.06, 9.10, repro,
1996-10-16,-4.06, 0.72, 10.48, 2.47, 1.96, 8.72, repro,
1996-10-17,-1.48, -1.16, -3.09, 2.42, 2.00, 8.95, repro,
1996-10-18,-3.21, -0.16, 6.11, 2.44, 1.99, 8.77, repro,
1996-10-19,-2.32, -0.56, 2.29, 2.37, 1.96, 8.65, repro,
1996-10-20,-3.18, -1.46, -1.84, 2.42, 1.95, 8.72, repro,
1996-10-21,-1.59, -0.67, -0.42, 2.50, 2.00, 9.22, repro,
1996-10-22,-1.69, -0.32, 3.46, 2.37, 1.90, 8.33, repro,
1996-10-23,-2.97, 1.11, 4.12, 2.50, 2.06, 8.85, repro,
1996-10-24,-2.41, 0.90, 11.12, 2.63, 2.11, 9.39, repro,
1996-10-25,-4.00, 0.73, 6.47, 2.42, 1.98, 8.71, repro,
1996-10-26,-3.19, -0.78, -6.36, 2.50, 2.04, 8.82, repro,
1996-10-27,-1.19, -0.77, -6.66, 2.52, 2.07, 8.92, repro,
1996-10-28,-1.37, 0.16, 1.38, 2.43, 2.02, 8.84, repro,
1996-10-29,-4.00, -0.60, -6.17, 2.34, 1.88, 8.32, repro,
1996-10-30,-2.08, 0.91, 0.05, 2.37, 1.92, 8.64, repro,
1996-10-31,-2.61, -0.07, 5.96, 2.45, 1.97, 8.70, repro,
1996-11-01,0.07, 0.11, 1.95, 2.44, 2.02, 8.90, repro,
1996-11-02,-1.62, 0.92, 3.25, 2.53, 2.14, 9.25, repro,
1996-11-03,-1.56, 0.08, -0.55, 2.49, 2.02, 8.90, repro,
1996-11-04,-1.17, -2.01, 2.17, 2.65, 2.15, 9.87, repro,
1996-11-05,-2.13, -1.23, 1.53, 2.59, 2.09, 9.29, repro,
1996-11-06,0.05, -0.97, 3.99, 2.75, 2.31, 10.05, repro,
1996-11-07,-1.38, 0.45, -1.09, 2.66, 2.14, 9.62, repro,
1996-11-08,-1.62, 2.30, 8.21, 2.58, 2.10, 9.20, repro,
1996-11-09,-1.10, 1.06, 12.88, 2.89, 2.40, 10.18, repro,
1996-11-10,-2.66, 0.31, -1.96, 2.77, 2.31, 10.43, repro,
1996-11-11,-1.25, -0.38, 0.47, 2.72, 2.28, 10.15, repro,
1996-11-12,-0.28, -2.83, -4.72, 2.46, 2.03, 9.17, repro,
1996-11-13,1.24, -3.31, -8.78, 2.74, 2.26, 10.78, repro,
1996-11-14,0.82, -1.93, -7.81, 2.39, 1.95, 8.70, repro,
1996-11-15,-1.14, -0.09, -10.15, 2.70, 2.13, 9.74, repro,
1996-11-16,2.06, 0.20, -20.50, 2.66, 2.27, 9.91, repro,
1996-11-17,-0.24, 0.11, -6.78, 2.92, 2.53, 11.38, repro,
1996-11-18,-0.24, -0.15, -13.06, 2.69, 2.35, 10.36, repro,
1996-11-19,-0.91, 3.21, -4.29, 3.05, 2.56, 11.11, repro,
1996-11-20,-0.25, 0.36, -1.38, 2.39, 1.98, 8.75, repro,
1996-11-21,-0.10, 0.07, -4.38, 2.49, 2.10, 9.42, repro,
1996-11-22,-0.94, -1.08, -1.87, 2.63, 2.28, 9.94, repro,
1996-11-23,0.07, -3.17, -0.01, 2.40, 2.02, 8.88, repro,
1996-11-24,-2.48, -1.28, 1.10, 2.66, 2.23, 9.93, repro,
1996-11-25,-5.25, 2.14, -3.12, 2.65, 2.21, 9.80, repro,
1996-11-26,-8.66, 1.91, 6.78, 2.49, 2.09, 9.25, repro,
1996-11-27,-0.67, 0.19, 6.07, 2.67, 2.22, 9.96, repro,
1996-11-28,0.54, 0.87, -0.87, 2.69, 2.17, 9.93, repro,
1996-11-29,-0.66, -0.31, 4.18, 2.83, 2.35, 10.70, repro,
1996-11-30,-1.43, 0.72, -0.33, 2.79, 2.36, 10.59, repro,
1996-12-01,-2.37, -1.91, 4.16, 2.56, 2.13, 9.33, repro,
1996-12-02,0.63, 1.91, 3.22, 2.66, 2.26, 10.22, repro,
1996-12-03,-0.67, 0.40, 9.08, 2.54, 2.07, 9.09, repro,
1996-12-04,1.46, 2.26, 0.45, 2.75, 2.39, 10.16, repro,
1996-12-05,-0.79, -0.15, 16.60, 2.79, 2.35, 10.91, repro,
1996-12-06,-18.48, 1.42, 13.13, 3.06, 2.76, 10.96, repro,
1996-12-07,-1.90, 5.28, 13.03, 2.70, 2.30, 9.85, repro,
1996-12-08,3.00, 1.27, 0.52, 4.52, 4.11, 19.64, repro,
1996-12-09,-1.08, -4.99, 13.68, 3.68, 2.99, 13.87, repro,
1996-12-10,-0.34, 1.46, 10.51, 3.46, 2.95, 13.32, repro,
1996-12-11,-1.02, -0.43, 6.71, 2.61, 2.17, 9.59, repro,
1996-12-12,-0.86, -0.32, -4.10, 2.63, 2.10, 9.39, repro,
1996-12-13,-0.67, -0.90, 1.78, 2.39, 1.91, 8.51, repro,
1996-12-14,-0.04, -1.29, -1.71, 2.48, 1.94, 9.06, repro,
1996-12-15,-0.66, -1.22, -9.56, 2.59, 2.06, 9.29, repro,
1996-12-16,-0.36, -0.61, -6.67, 2.34, 1.83, 8.29, repro,
1996-12-17,0.48, 0.57, -2.48, 2.44, 2.00, 8.88, repro,
1996-12-18,-1.44, 0.90, 2.52, 2.42, 1.87, 8.70, repro,
1996-12-19,-0.55, 0.41, 4.15, 2.42, 1.87, 8.51, repro,
1996-12-20,0.56, -2.09, 5.58, 2.56, 2.02, 9.40, repro,
1996-12-21,-0.62, -0.92, 0.23, 3.07, 2.29, 10.63, repro,
1996-12-22,-1.29, 1.29, -3.62, 2.55, 1.98, 8.63, repro,
1996-12-23,-0.29, 1.03, -3.46, 2.37, 1.84, 8.15, repro,
1996-12-24,0.97, 1.33, -3.76, 2.41, 1.88, 8.49, repro,
1996-12-25,-0.77, -1.48, 0.77, 2.44, 1.88, 8.77, repro,
1996-12-26,-0.39, -0.22, 3.25, 2.39, 1.86, 8.28, repro,
1996-12-27,-0.53, 0.38, 5.41, 2.42, 1.89, 8.50, repro,
1996-12-28,-0.49, 0.87, 2.37, 2.50, 1.93, 8.84, repro,
1996-12-29,-2.52, 0.06, 11.09, 2.56, 1.92, 8.80, repro,
1996-12-30,-1.51, -1.51, 5.50, 2.56, 2.03, 8.96, repro,
1996-12-31,-1.30, -3.10, -1.84, 2.61, 2.01, 9.29, repro,
1997-01-01,-0.28, -2.35, -4.69, 2.51, 1.94, 8.90, repro,
1997-01-02,-0.63, -1.31, 4.69, 2.59, 2.17, 9.52, repro,
1997-01-03,-0.95, 0.63, 3.55, 2.57, 2.10, 9.57, repro,
1997-01-04,-0.84, 0.01, 7.02, 2.49, 2.01, 8.96, repro,
1997-01-05,-1.91, 1.07, 5.16, 2.58, 2.09, 9.52, repro,
1997-01-06,-0.69, -1.28, 1.55, 2.56, 2.08, 9.41, repro,
1997-01-07,-0.79, -2.67, 1.90, 2.68, 2.22, 9.98, repro,
1997-01-08,0.23, 0.05, -0.98, 2.48, 1.98, 8.90, repro,
1997-01-09,-2.41, 0.86, -2.36, 2.52, 2.01, 8.97, repro,
1997-01-10,-1.59, 2.72, 8.49, 2.44, 1.96, 8.72, repro,
1997-01-11,-2.64, 0.93, 8.87, 2.52, 2.01, 9.09, repro,
1997-01-12,-2.03, -1.89, 4.80, 2.72, 2.15, 9.82, repro,
1997-01-13,-0.19, 0.70, -2.90, 2.37, 1.89, 8.56, repro,
1997-01-14,-1.12, -2.07, -7.62, 2.49, 2.01, 9.16, repro,
1997-01-15,-0.03, 0.62, -5.89, 2.63, 2.17, 10.01, repro,
1997-01-16,-1.91, 0.83, 2.85, 2.49, 2.05, 9.30, repro,
1997-01-17,0.02, -0.80, -0.07, 2.98, 2.33, 11.03, repro,
1997-01-18,-0.13, 0.22, -1.79, 2.72, 2.17, 9.76, repro,
1997-01-19,-0.96, 1.42, -5.02, 2.65, 2.11, 9.63, repro,
1997-01-20,-2.41, 1.29, -1.29, 2.57, 2.05, 9.21, repro,
1997-01-21,-2.02, -0.80, -1.23, 2.76, 2.31, 10.25, repro,
1997-01-22,-1.35, -0.91, -3.95, 2.85, 2.33, 10.31, repro,
1997-01-23,-0.97, -0.02, 3.45, 2.59, 2.09, 9.61, repro,
1997-01-24,-1.27, 0.05, -5.54, 2.55, 2.04, 9.00, repro,
1997-01-25,3.51, 0.91, 5.92, 2.81, 2.26, 10.40, repro,
1997-01-26,-0.20, -1.97, -5.16, 2.70, 2.23, 9.97, repro,
1997-01-27,1.35, -1.16, -17.15, 2.87, 2.45, 10.96, repro,
1997-01-28,0.77, -1.12, 2.32, 2.50, 2.02, 8.99, repro,
1997-01-29,1.00, -1.26, -4.52, 2.47, 2.06, 9.19, repro,
1997-01-30,-0.52, -1.19, -10.63, 2.49, 1.95, 8.74, repro,
1997-01-31,-0.43, -1.12, -5.98, 2.46, 1.91, 8.58, repro,
1997-02-01,-0.57, -1.87, -2.77, 2.35, 1.83, 8.24, repro,
1997-02-24,-1.70, -0.79, -6.71, 2.56, 2.04, 9.13, repro,
1997-02-25,-0.29, 0.28, -2.64, 2.56, 1.97, 9.20, repro,
1997-02-26,1.12, 0.32, -2.50, 2.63, 2.03, 9.27, repro,
1997-02-27,0.54, -0.93, 3.83, 2.79, 2.13, 9.71, repro,
1997-02-28,0.84, 0.38, 0.61, 2.47, 1.89, 8.75, repro,
1997-03-01,1.53, 0.76, -8.66, 2.58, 2.04, 9.53, repro,
1997-03-02,2.37, 0.11, 2.70, 2.65, 2.06, 9.50, repro,
1997-03-03,-1.14, -1.13, -6.65, 2.50, 1.95, 9.05, repro,
1997-03-04,-2.22, -0.39, -10.39, 2.62, 2.02, 9.25, repro,
1997-03-05,0.10, 0.55, -5.10, 2.54, 1.96, 8.98, repro,
1997-03-06,0.69, -1.14, -0.96, 2.53, 1.95, 9.14, repro,
1997-03-07,-0.45, -2.57, -0.61, 2.44, 1.85, 8.74, repro,
1997-03-08,-2.55, 2.66, -11.66, 2.58, 1.99, 9.30, repro,
1997-03-09,2.06, 3.50, -20.26, 2.73, 2.13, 9.70, repro,
1997-03-10,-1.43, -0.27, -6.48, 2.47, 1.93, 9.09, repro,
1997-03-11,-4.52, -1.00, -6.51, 2.83, 2.17, 10.11, repro,
1997-03-12,-1.65, -1.64, -4.75, 2.57, 1.98, 9.24, repro,
1997-03-13,0.35, -2.45, -17.84, 2.76, 2.44, 9.62, repro,
1997-03-14,-0.49, -0.08, -13.70, 3.08, 8.04, 10.86, repro,
1997-03-15,2.79, 0.14, -10.41, 2.81, 6.37, 9.96, repro,